• In Deutschland
  • Länderverzeichnis
  • Für 7 Tage
  • Wassertemperatur
  • Satellitenkarten
  • Wetterkarte
  • Widgets
  • user-avatar
    Anmelden

    Stündliche Wetter Wenzhou

    Heute, 24 Oktober, Mittwoch

    Zeit Temperatur Niederschläge Wind Luftdruck Luftfeuchtigkeit
    00:00 +19°C° 0 mm 2 m/S 763 mmHg 89%
    01:00 +18°C° 0 mm 2 m/S 763 mmHg 89%
    02:00 +18°C° 0 mm 2 m/S 763 mmHg 90%
    03:00 +18°C° 0 mm 2 m/S 763 mmHg 90%
    04:00 +18°C° 0 mm 2 m/S 763 mmHg 90%
    05:00 +17°C° 0 mm 2 m/S 763 mmHg 91%
    06:00 +18°C° 0 mm 2 m/S 763 mmHg 86%
    07:00 +20°C° 0 mm 2 m/S 763 mmHg 82%
    08:00 +21°C° 0 mm 2 m/S 764 mmHg 78%
    09:00 +23°C° 0 mm 2 m/S 764 mmHg 72%
    10:00 +25°C° 0 mm 2 m/S 763 mmHg 66%
    11:00 +26°C° 0 mm 2 m/S 763 mmHg 60%
    12:00 +26°C° 0 mm 2 m/S 763 mmHg 62%
    13:00 +26°C° 0 mm 2 m/S 763 mmHg 63%
    14:00 +26°C° 0 mm 3 m/S 762 mmHg 65%
    15:00 +25°C° 0 mm 3 m/S 762 mmHg 70%
    16:00 +24°C° 0 mm 3 m/S 762 mmHg 75%
    17:00 +22°C° 0 mm 3 m/S 762 mmHg 80%
    18:00 +21°C° 0 mm 2 m/S 763 mmHg 83%
    19:00 +21°C° 0 mm 2 m/S 763 mmHg 85%
    20:00 +21°C° 0 mm 2 m/S 763 mmHg 87%
    21:00 +20°C° 0 mm 2 m/S 763 mmHg 88%
    22:00 +20°C° 0 mm 2 m/S 764 mmHg 89%
    23:00 +21°C° 0 mm 1 m/S 764 mmHg 90%

    Morgen, 25 Oktober, Donnerstag

    Zeit Temperatur Niederschläge Wind Luftdruck Luftfeuchtigkeit
    00:00 +21°C° 0 mm 1 m/S 763 mmHg 91%
    01:00 +20°C° 0 mm 1 m/S 763 mmHg 93%
    02:00 +20°C° 0 mm 1 m/S 763 mmHg 94%
    03:00 +20°C° 0 mm 1 m/S 763 mmHg 93%
    04:00 +20°C° 0 mm 1 m/S 763 mmHg 93%
    05:00 +20°C° 0 mm 1 m/S 763 mmHg 93%
    06:00 +21°C° 0 mm 1 m/S 763 mmHg 90%
    07:00 +22°C° 0 mm 1 m/S 763 mmHg 88%
    08:00 +22°C° 0 mm 1 m/S 764 mmHg 86%
    09:00 +23°C° 0 mm 1 m/S 763 mmHg 85%
    10:00 +23°C° 0 mm 1 m/S 763 mmHg 84%
    11:00 +23°C° 0 mm 1 m/S 763 mmHg 82%
    12:00 +23°C° 0 mm 1 m/S 763 mmHg 82%
    13:00 +24°C° 0 mm 1 m/S 762 mmHg 82%
    14:00 +24°C° 0 mm 1 m/S 762 mmHg 81%
    15:00 +23°C° 0.1 mm 1 m/S 761 mmHg 84%
    16:00 +23°C° 0.1 mm 1 m/S 761 mmHg 87%
    17:00 +22°C° 0.1 mm 1 m/S 761 mmHg 89%
    18:00 +22°C° 0 mm 1 m/S 761 mmHg 90%
    19:00 +21°C° 0 mm 1 m/S 762 mmHg 91%
    20:00 +21°C° 0 mm 1 m/S 762 mmHg 93%
    21:00 +21°C° 0 mm 1 m/S 762 mmHg 93%
    22:00 +20°C° 0 mm 1 m/S 762 mmHg 94%
    23:00 +20°C° 0 mm 1 m/S 762 mmHg 94%

    übermorgen, 26 Oktober, Freitag

    Zeit Temperatur Niederschläge Wind Luftdruck Luftfeuchtigkeit
    00:00 +20°C° 0 mm 1 m/S 762 mmHg 94%
    01:00 +20°C° 0 mm 1 m/S 761 mmHg 94%
    02:00 +20°C° 0 mm 1 m/S 761 mmHg 94%
    03:00 +20°C° 0 mm 1 m/S 761 mmHg 94%
    04:00 +20°C° 0 mm 1 m/S 761 mmHg 94%
    05:00 +20°C° 0 mm 1 m/S 761 mmHg 94%
    06:00 +21°C° 0.3 mm 1 m/S 761 mmHg 94%
    07:00 +21°C° 0.3 mm 1 m/S 762 mmHg 93%
    08:00 +22°C° 0.3 mm 1 m/S 762 mmHg 92%
    09:00 +22°C° 1.2 mm 1 m/S 763 mmHg 93%
    10:00 +21°C° 1.2 mm 2 m/S 763 mmHg 94%
    11:00 +21°C° 1.2 mm 2 m/S 763 mmHg 95%
    12:00 +23°C° 0.2 mm 2 m/S 763 mmHg 91%
    13:00 +24°C° 0.2 mm 2 m/S 762 mmHg 87%
    14:00 +24°C° 0.2 mm 2 m/S 762 mmHg 83%
    15:00 +24°C° 0.1 mm 2 m/S 762 mmHg 84%
    16:00 +23°C° 0.1 mm 2 m/S 762 mmHg 85%
    17:00 +21°C° 0.1 mm 3 m/S 763 mmHg 86%
    18:00 +20°C° 0 mm 3 m/S 763 mmHg 87%
    19:00 +19°C° 0 mm 3 m/S 764 mmHg 88%
    20:00 +19°C° 0 mm 3 m/S 764 mmHg 90%
    21:00 +18°C° 0 mm 3 m/S 765 mmHg 90%
    22:00 +17°C° 0 mm 3 m/S 765 mmHg 90%
    23:00 +17°C° 0 mm 3 m/S 765 mmHg 90%

    27 Oktober, Samstag

    Zeit Temperatur Niederschläge Wind Luftdruck Luftfeuchtigkeit
    00:00 +16°C° 0 mm 3 m/S 765 mmHg 87%
    01:00 +14°C° 0 mm 3 m/S 765 mmHg 84%
    02:00 +14°C° 0 mm 3 m/S 765 mmHg 80%
    03:00 +13°C° 0 mm 3 m/S 765 mmHg 76%
    04:00 +12°C° 0 mm 3 m/S 765 mmHg 72%
    05:00 +12°C° 0 mm 3 m/S 766 mmHg 68%
    06:00 +13°C° 0 mm 3 m/S 766 mmHg 64%
    07:00 +14°C° 0 mm 3 m/S 767 mmHg 60%
    08:00 +16°C° 0 mm 3 m/S 767 mmHg 55%
    09:00 +18°C° 0 mm 4 m/S 767 mmHg 47%
    10:00 +20°C° 0 mm 4 m/S 767 mmHg 39%
    11:00 +22°C° 0 mm 4 m/S 766 mmHg 31%
    12:00 +22°C° 0 mm 4 m/S 766 mmHg 31%
    13:00 +23°C° 0 mm 4 m/S 765 mmHg 31%
    14:00 +23°C° 0 mm 4 m/S 764 mmHg 31%
    15:00 +22°C° 0 mm 3 m/S 764 mmHg 37%
    16:00 +20°C° 0 mm 3 m/S 764 mmHg 43%
    17:00 +18°C° 0 mm 3 m/S 764 mmHg 49%
    18:00 +17°C° 0 mm 3 m/S 765 mmHg 50%
    19:00 +16°C° 0 mm 3 m/S 765 mmHg 52%
    20:00 +15°C° 0 mm 2 m/S 765 mmHg 53%
    21:00 +14°C° 0 mm 2 m/S 765 mmHg 54%
    22:00 +14°C° 0 mm 2 m/S 765 mmHg 55%
    23:00 +14°C° 0 mm 2 m/S 765 mmHg 55%

    28 Oktober, Sonntag

    Zeit Temperatur Niederschläge Wind Luftdruck Luftfeuchtigkeit
    00:00 +13°C° 0 mm 2 m/S 765 mmHg 56%
    01:00 +13°C° 0 mm 2 m/S 764 mmHg 56%
    02:00 +13°C° 0 mm 2 m/S 764 mmHg 56%
    03:00 +12°C° 0 mm 2 m/S 764 mmHg 56%
    04:00 +12°C° 0 mm 2 m/S 764 mmHg 56%
    05:00 +12°C° 0 mm 2 m/S 764 mmHg 57%
    06:00 +13°C° 0 mm 2 m/S 764 mmHg 55%
    07:00 +15°C° 0 mm 2 m/S 764 mmHg 54%
    08:00 +16°C° 0 mm 2 m/S 765 mmHg 52%
    09:00 +20°C° 0 mm 1 m/S 764 mmHg 46%
    10:00 +22°C° 0 mm 1 m/S 764 mmHg 39%
    11:00 +25°C° 0 mm 1 m/S 763 mmHg 33%
    12:00 +25°C° 0 mm 1 m/S 763 mmHg 32%
    13:00 +25°C° 0 mm 1 m/S 762 mmHg 31%
    14:00 +26°C° 0 mm 2 m/S 761 mmHg 30%
    15:00 +24°C° 0 mm 1 m/S 761 mmHg 37%
    16:00 +22°C° 0 mm 1 m/S 761 mmHg 44%
    17:00 +20°C° 0 mm 1 m/S 761 mmHg 51%
    18:00 +19°C° 0 mm 1 m/S 762 mmHg 53%
    19:00 +18°C° 0 mm 1 m/S 762 mmHg 55%
    20:00 +15°C° 0 mm 0 m/S 763 mmHg 56%
    21:00 +15°C° 0 mm 1 m/S 763 mmHg 57%
    22:00 +15°C° 0 mm 1 m/S 763 mmHg 57%
    23:00 +15°C° 0 mm 2 m/S 763 mmHg 57%

    29 Oktober, Montag

    Zeit Temperatur Niederschläge Wind Luftdruck Luftfeuchtigkeit
    00:00 +14°C° 0 mm 2 m/S 762 mmHg 58%
    01:00 +14°C° 0 mm 2 m/S 762 mmHg 58%
    02:00 +14°C° 0 mm 2 m/S 762 mmHg 58%
    03:00 +14°C° 0 mm 2 m/S 762 mmHg 59%
    04:00 +12°C° 0 mm 3 m/S 762 mmHg 60%
    05:00 +12°C° 0 mm 3 m/S 762 mmHg 60%
    06:00 +13°C° 0 mm 3 m/S 762 mmHg 59%
    07:00 +16°C° 0 mm 2 m/S 763 mmHg 57%
    08:00 +17°C° 0 mm 2 m/S 763 mmHg 56%
    09:00 +20°C° 0 mm 2 m/S 763 mmHg 48%
    10:00 +22°C° 0 mm 3 m/S 763 mmHg 39%
    11:00 +25°C° 0 mm 3 m/S 763 mmHg 31%
    12:00 +26°C° 0 mm 3 m/S 762 mmHg 31%
    13:00 +26°C° 0 mm 3 m/S 762 mmHg 31%
    14:00 +26°C° 0 mm 3 m/S 761 mmHg 31%
    15:00 +25°C° 0 mm 3 m/S 762 mmHg 38%
    16:00 +22°C° 0 mm 3 m/S 762 mmHg 45%
    17:00 +20°C° 0 mm 3 m/S 762 mmHg 51%
    18:00 +19°C° 0 mm 3 m/S 763 mmHg 53%
    19:00 +18°C° 0 mm 3 m/S 763 mmHg 55%
    20:00 +16°C° 0 mm 3 m/S 764 mmHg 58%
    21:00 +16°C° 0 mm 3 m/S 764 mmHg 59%
    22:00 +14°C° 0 mm 3 m/S 764 mmHg 61%
    23:00 +14°C° 0 mm 3 m/S 764 mmHg 62%

    30 Oktober, Dienstag

    Zeit Temperatur Niederschläge Wind Luftdruck Luftfeuchtigkeit
    00:00 +13°C° 0 mm 3 m/S 764 mmHg 63%
    01:00 +13°C° 0 mm 3 m/S 764 mmHg 64%
    02:00 +13°C° 0 mm 3 m/S 764 mmHg 66%
    03:00 +12°C° 0 mm 3 m/S 764 mmHg 67%
    04:00 +12°C° 0 mm 3 m/S 764 mmHg 68%
    05:00 +11°C° 0 mm 3 m/S 764 mmHg 69%
    06:00 +14°C° 0 mm 2 m/S 764 mmHg 65%
    07:00 +15°C° 0 mm 2 m/S 764 mmHg 62%
    08:00 +17°C° 0 mm 2 m/S 765 mmHg 58%
    09:00 +19°C° 0 mm 2 m/S 764 mmHg 52%
    10:00 +21°C° 0 mm 2 m/S 764 mmHg 46%
    11:00 +24°C° 0 mm 2 m/S 764 mmHg 40%
    12:00 +24°C° 0 mm 2 m/S 763 mmHg 40%
    13:00 +24°C° 0 mm 3 m/S 763 mmHg 39%
    14:00 +24°C° 0 mm 3 m/S 763 mmHg 39%
    15:00 +22°C° 0 mm 3 m/S 763 mmHg 47%
    16:00 +20°C° 0 mm 3 m/S 763 mmHg 54%
    17:00 +19°C° 0 mm 2 m/S 763 mmHg 62%
    18:00 +18°C° 0 mm 2 m/S 763 mmHg 66%
    19:00 +17°C° 0 mm 2 m/S 764 mmHg 70%
    20:00 +16°C° 0 mm 2 m/S 764 mmHg 74%
    21:00 +15°C° 0 mm 2 m/S 764 mmHg 76%
    22:00 +15°C° 0 mm 2 m/S 764 mmHg 78%
    23:00 +15°C° 0 mm 2 m/S 764 mmHg 80%
    Mehr zeigen